West Palm Beach, FL

6:27 AM EST on February 18, 2018 (GMT -0500)
Palm Beach International

Weather History for KPBI - February, 2012

Change the Weather History Date:

Saturday, February 11, 2012

  Actual Average Record
Temperature  
Mean Temperature 63 °F 68 °F  
Max Temperature 72 °F 76 °F 88 °F (1960)
Min Temperature 54 °F 59 °F 38 °F (1974)
Degree Days  
Heating Degree Days 2 2  
Month to date heating degree days 2 22  
Since 1 July heating degree days 89 179  
Cooling Degree Days 0 4  
Month to date cooling degree days 84 44  
Year to date cooling degree days 189 152  
Growing Degree Days 14 (Base 50)    
Moisture  
Dew Point 58 °F    
Average Humidity 72    
Maximum Humidity 100    
Minimum Humidity 44    
Precipitation  
Precipitation 0.13 in 0.10 in 2.80 in (1934)
Month to date precipitation 2.95 1.04  
Year to date precipitation 3.33 4.17  
Snow  
Snow 0.00 in - - ()
Month to date snowfall 0.0  
Since 1 July snowfall 0.0  
Snow Depth 0.00 in    
Sea Level Pressure  
Sea Level Pressure 29.94 in    
Wind  
Wind Speed 15 mph (WNW)    
Max Wind Speed 24 mph    
Max Gust Speed 31 mph    
Visibility 10 miles    
Events Rain    
T = Trace of Precipitation, MM = Missing Value Source: NWS Daily Summary

Daily Weather History Graph

Daily Weather History Graph

Search for Another Location

Airport or City:

Trip Planner

Search our weather history database for the weather conditions in past years. The results will help you decide how hot, cold, wet, or windy it might be!

Date:

Astronomy

Feb. 11, 2012 Rise Set
Actual Time 6:59 AM EST 6:09 PM EST
Civil Twilight 6:35 AM EST 6:33 PM EST
Nautical Twilight 6:08 AM EST 7:01 PM EST
Astronomical Twilight 5:41 AM EST 7:28 PM EST
Moon 10:21 PM EST (2/11) 9:12 AM EST (2/11)
Length of Visible Light 11h 57m
Length of Day
11h 09m
Waning Gibbous, 82% of the Moon is Illuminated
Feb 11
Waning Gibbous
Feb 14
Last Quarter
Feb 21
New
Feb 29
First Quarter
Mar 8
Full

Hourly Weather History & Observations

Time (EST) Temp. Dew Point Humidity Pressure Visibility Wind Dir Wind Speed Gust Speed Precip Events Conditions
12:10 AM 69.8 °F 66.2 °F 88% 29.91 in 10.0 mi West 18.4 mph 24.2 mph N/A   Overcast
12:53 AM 70.0 °F 66.9 °F 90% 29.92 in 10.0 mi West 13.8 mph - N/A   Overcast
1:53 AM 70.0 °F 66.0 °F 87% 29.93 in 10.0 mi WNW 18.4 mph 27.6 mph N/A   Overcast
2:53 AM 66.9 °F 64.9 °F 93% 29.92 in 10.0 mi WNW 10.4 mph - 0.06 in Rain Light Rain
3:30 AM 66.2 °F 64.4 °F 94% 29.89 in 10.0 mi WNW 6.9 mph - 0.05 in Rain Light Rain
3:53 AM 66.0 °F 64.9 °F 96% 29.89 in 10.0 mi WNW 5.8 mph - 0.07 in Rain Light Rain
4:53 AM 66.0 °F 64.0 °F 93% 29.88 in 10.0 mi SW 5.8 mph - 0.00 in   Overcast
5:53 AM 64.9 °F 64.9 °F 100% 29.87 in 10.0 mi West 5.8 mph - N/A   Clear
6:41 AM 66.2 °F 64.4 °F 94% 29.89 in 10.0 mi West 6.9 mph - N/A   Scattered Clouds
6:53 AM 66.0 °F 64.9 °F 96% 29.89 in 10.0 mi West 6.9 mph - N/A   Scattered Clouds
7:25 AM 66.2 °F 64.4 °F 94% 29.89 in 10.0 mi West 6.9 mph - N/A   Mostly Cloudy
7:53 AM 66.0 °F 64.9 °F 96% 29.91 in 10.0 mi WNW 13.8 mph - N/A   Overcast
8:53 AM 66.0 °F 64.0 °F 93% 29.94 in 10.0 mi WNW 15.0 mph - N/A   Overcast
9:26 AM 66.2 °F 62.6 °F 88% 29.95 in 10.0 mi NW 12.7 mph - N/A   Overcast
9:53 AM 66.9 °F 62.1 °F 84% 29.96 in 10.0 mi NW 16.1 mph - N/A   Mostly Cloudy
10:53 AM 68.0 °F 59.0 °F 73% 29.96 in 10.0 mi NW 18.4 mph - N/A   Overcast
11:53 AM 69.1 °F 57.0 °F 65% 29.95 in 10.0 mi NW 20.7 mph 26.5 mph N/A   Mostly Cloudy
12:27 PM 71.6 °F 57.2 °F 60% 29.95 in 10.0 mi WNW 15.0 mph - N/A   Scattered Clouds
12:53 PM 72.0 °F 55.9 °F 57% 29.94 in 10.0 mi WNW 17.3 mph 23.0 mph N/A   Mostly Cloudy
1:53 PM 70.0 °F 51.1 °F 51% 29.92 in 10.0 mi West 21.9 mph 27.6 mph N/A   Scattered Clouds
2:53 PM 71.1 °F 48.0 °F 44% 29.91 in 10.0 mi WNW 17.3 mph 24.2 mph N/A   Scattered Clouds
3:53 PM 69.1 °F 48.9 °F 49% 29.91 in 10.0 mi WNW 19.6 mph 24.2 mph N/A   Scattered Clouds
4:53 PM 68.0 °F 51.1 °F 55% 29.93 in 10.0 mi WNW 19.6 mph 26.5 mph N/A   Mostly Cloudy
5:53 PM 64.9 °F 50.0 °F 58% 29.93 in 10.0 mi WNW 13.8 mph - N/A   Scattered Clouds
6:53 PM 64.0 °F 51.1 °F 63% 29.95 in 10.0 mi West 12.7 mph - N/A   Scattered Clouds
7:53 PM 63.0 °F 48.0 °F 58% 29.98 in 10.0 mi WNW 17.3 mph 25.3 mph N/A   Scattered Clouds
8:53 PM 60.1 °F 48.9 °F 67% 30.01 in 10.0 mi WNW 12.7 mph - N/A   Scattered Clouds
9:53 PM 57.9 °F 48.0 °F 70% 30.04 in 10.0 mi WNW 18.4 mph - N/A   Scattered Clouds
10:53 PM 55.9 °F 45.0 °F 67% 30.07 in 10.0 mi WNW 21.9 mph 29.9 mph N/A   Partly Cloudy
11:53 PM 54.0 °F 43.0 °F 66% 30.08 in 10.0 mi NW 20.7 mph 27.6 mph N/A   Partly Cloudy